| time (UTC) | temp F | wind direction | speed knots | gust knots | rain 1hr in | rain 24hr in | rain mn in | humidity % | barometer mb |
| 20260507085604 | 46 | 127 | 0.9 | 0.9 | 0.00 | 0.01 | 0.01 | 95 | 1006.5 |
| 20260507085101 | 46 | 92 | 0.9 | 1.7 | 0.00 | 0.01 | 0.01 | 95 | 1006.6 |
| 20260507084558 | 46 | 79 | 1.7 | 1.7 | 0.00 | 0.01 | 0.01 | 95 | 1007.0 |
| 20260507084055 | 46 | 106 | 0.9 | 0.9 | 0.00 | 0.01 | 0.01 | 96 | 1006.7 |
| 20260507083551 | 46 | 97 | 0.9 | 0.9 | 0.00 | 0.01 | 0.01 | 96 | 1006.6 |
| 20260507083048 | 46 | 107 | 0.9 | 0.9 | 0.00 | 0.01 | 0.01 | 95 | 1006.4 |
| 20260507082544 | 46 | 108 | 0.0 | 0.0 | 0.00 | 0.01 | 0.01 | 94 | 1006.5 |
| 20260507082041 | 47 | 339 | 1.7 | 1.7 | 0.07 | 0.01 | 0.01 | 94 | 1006.5 |
| 20260507081537 | 47 | 105 | 0.0 | 0.0 | 0.07 | 0.01 | 0.01 | 93 | 1006.5 |
| 20260507081034 | 47 | 108 | 0.0 | 0.0 | 0.00 | 0.00 | 0.00 | 92 | 1006.4 |
| 20260507080529 | 48 | 96 | 0.9 | 0.9 | 0.00 | 0.00 | 0.00 | 91 | 1006.1 |
| 20260507080026 | 48 | 94 | 0.9 | 0.9 | 0.00 | 0.00 | 0.00 | 90 | 1006.4 |
| 20260507075522 | 48 | 99 | 0.9 | 0.9 | 0.00 | 0.00 | 0.00 | 88 | 1006.6 |
| 20260507075018 | 49 | 100 | 0.9 | 0.9 | 0.00 | 0.00 | 0.00 | 89 | 1006.6 |
| 20260507074515 | 49 | 109 | 1.7 | 1.7 | 0.00 | 0.00 | 0.00 | 89 | 1006.8 |
| 20260507074014 | 49 | 107 | 0.0 | 0.9 | 0.00 | 0.00 | 0.00 | 90 | 1006.6 |
| 20260507073509 | 49 | 100 | 2.6 | 2.6 | 0.00 | 0.00 | 0.00 | 91 | 1006.4 |
| 20260507073006 | 49 | 74 | 1.7 | 1.7 | 0.00 | 0.00 | 0.00 | 92 | 1006.4 |
| 20260507072504 | 49 | 97 | 0.9 | 0.9 | 0.00 | 0.00 | 0.00 | 92 | 1006.2 |
| 20260507072001 | 49 | 90 | 1.7 | 1.7 | 0.00 | 0.00 | 0.00 | 93 | 1006.2 |
| 20260507071458 | 49 | 93 | 1.7 | 1.7 | 0.00 | 0.00 | 0.00 | 92 | 1006.0 |
| 20260507070954 | 49 | 89 | 1.7 | 1.7 | 0.00 | 0.00 | 0.00 | 93 | 1006.0 |
| 20260507070451 | 49 | 94 | 0.9 | 0.9 | 0.00 | 0.00 | 0.00 | 93 | 1006.4 |
| 20260507065948 | 49 | 83 | 1.7 | 1.7 | 0.00 | 0.00 | 0.00 | 93 | 1006.3 |
| 20260507065445 | 49 | 83 | 1.7 | 1.7 | 0.00 | 0.00 | 0.00 | 93 | 1006.1 |
| 20260507064942 | 49 | 97 | 0.0 | 0.9 | 0.00 | 0.00 | 0.00 | 92 | 1006.0 |
| 20260507064440 | 49 | 100 | 0.9 | 0.9 | 0.00 | 0.00 | 0.00 | 92 | 1006.0 |
| 20260507063938 | 49 | 106 | 1.7 | 1.7 | 0.00 | 0.00 | 0.00 | 92 | 1005.8 |
| 20260507063434 | 49 | 103 | 0.9 | 0.9 | 0.00 | 0.00 | 0.00 | 92 | 1006.3 |
| 20260507062932 | 49 | 111 | 0.0 | 0.0 | 0.00 | 0.00 | 0.00 | 92 | 1005.7 |
| 20260507062429 | 49 | 104 | 0.0 | 0.0 | 0.00 | 0.00 | 0.00 | 92 | 1005.9 |
| 20260507061926 | 49 | 102 | 0.0 | 0.9 | 0.00 | 0.00 | 0.00 | 91 | 1005.9 |
| 20260507061424 | 49 | 67 | 0.9 | 1.7 | 0.00 | 0.00 | 0.00 | 92 | 1005.8 |
| 20260507060922 | 49 | 102 | 0.0 | 0.9 | 0.00 | 0.00 | 0.00 | 91 | 1005.9 |
| 20260507060419 | 49 | 107 | 0.0 | 0.9 | 0.00 | 0.00 | 0.00 | 90 | 1006.0 |
| 20260507055915 | 49 | 93 | 0.9 | 0.9 | 0.00 | 0.00 | 0.00 | 90 | 1006.1 |
| 20260507055411 | 49 | 100 | 0.9 | 0.9 | 0.00 | 0.00 | 0.00 | 91 | 1006.0 |
| 20260507054908 | 49 | 107 | 0.9 | 0.9 | 0.00 | 0.00 | 0.00 | 91 | 1006.2 |
| 20260507054404 | 49 | 107 | 0.9 | 1.7 | 0.00 | 0.00 | 0.00 | 92 | 1006.2 |
| 20260507053901 | 49 | 259 | 0.9 | 1.7 | 0.00 | 0.00 | 0.00 | 93 | 1006.4 |
| 20260507053359 | 49 | 108 | 0.9 | 0.9 | 0.00 | 0.00 | 0.00 | 93 | 1006.6 |
| 20260507052858 | 50 | 98 | 1.7 | 1.7 | 0.00 | 0.00 | 0.00 | 95 | 1006.4 |
| 20260507052354 | 50 | 118 | 0.0 | 0.9 | 0.00 | 0.00 | 0.00 | 95 | 1006.2 |
| 20260507051851 | 50 | 104 | 0.9 | 0.9 | 0.00 | 0.00 | 0.00 | 95 | 1006.4 |
| 20260507051349 | 50 | 109 | 1.7 | 1.7 | 0.00 | 0.00 | 0.00 | 96 | 1006.5 |
| 20260507050845 | 50 | 120 | 0.9 | 1.7 | 0.00 | 0.00 | 0.00 | 97 | 1006.3 |
| 20260507050342 | 50 | 93 | 0.9 | 1.7 | 0.00 | 0.00 | 0.00 | 97 | 1006.2 |
| 20260507045839 | 50 | 114 | 0.0 | 0.0 | 0.00 | 0.00 | 0.00 | 97 | 1006.2 |
| 20260507045335 | 50 | 104 | 0.0 | 0.9 | 0.00 | 0.00 | 0.00 | 98 | 1005.8 |
| 20260507044833 | 50 | 93 | 0.0 | 0.9 | 0.00 | 0.00 | 0.00 | 98 | 1005.9 |
| 20260507044329 | 50 | 100 | 0.9 | 0.9 | 0.00 | 0.00 | 0.00 | 98 | 1006.0 |
| 20260507043825 | 50 | 110 | 0.9 | 1.7 | 0.00 | 0.00 | 0.00 | 98 | 1006.1 |
| 20260507043322 | 50 | 107 | 0.0 | 0.0 | 0.00 | 0.00 | 0.00 | 98 | 1006.1 |
| 20260507042818 | 50 | 81 | 3.5 | 4.3 | 0.00 | 0.00 | 0.00 | 98 | 1006.1 |
| 20260507042314 | 51 | 159 | 0.9 | 1.7 | 0.00 | 0.00 | 0.00 | 98 | 1006.1 |
| 20260507041811 | 51 | 104 | 0.9 | 0.9 | 0.00 | 0.00 | 0.00 | 98 | 1006.6 |
| 20260507041308 | 51 | 65 | 1.7 | 2.6 | 0.00 | 0.00 | 0.00 | 98 | 1006.3 |
| 20260507040805 | 52 | 106 | 0.9 | 1.7 | 0.00 | 0.00 | 0.00 | 98 | 1006.4 |
| 20260507040301 | 52 | 89 | 0.9 | 0.9 | 0.00 | 0.00 | 0.00 | 98 | 1006.3 |
| 20260507035757 | 52 | 102 | 0.9 | 0.9 | 0.00 | 0.24 | 0.24 | 98 | 1006.2 |
| 20260507035252 | 52 | 181 | 1.7 | 1.7 | 0.00 | 0.24 | 0.24 | 98 | 1005.9 |
| 20260507034750 | 53 | 352 | 3.5 | 5.2 | 0.00 | 0.24 | 0.24 | 98 | 1005.8 |
| 20260507034247 | 54 | 80 | 2.6 | 2.6 | 0.00 | 0.24 | 0.24 | 98 | 1005.6 |
| 20260507033745 | 54 | 98 | 2.6 | 2.6 | 0.00 | 0.24 | 0.24 | 98 | 1005.5 |
| 20260507033242 | 55 | 73 | 2.6 | 2.6 | 0.05 | 0.24 | 0.24 | 98 | 1005.4 |
| 20260507032739 | 55 | 114 | 1.7 | 2.6 | 0.05 | 0.24 | 0.24 | 98 | 1005.3 |
| 20260507032235 | 56 | 107 | 1.7 | 2.6 | 0.00 | 0.23 | 0.23 | 98 | 1005.3 |
| 20260507031732 | 56 | 84 | 2.6 | 2.6 | 0.00 | 0.23 | 0.23 | 98 | 1005.1 |
| 20260507031229 | 57 | 63 | 2.6 | 2.6 | 0.00 | 0.23 | 0.23 | 98 | 1005.1 |
| 20260507030726 | 57 | 294 | 1.7 | 1.7 | 0.00 | 0.23 | 0.23 | 98 | 1005.5 |
| 20260507030223 | 58 | 112 | 2.6 | 2.6 | 0.00 | 0.23 | 0.23 | 98 | 1005.2 |
| 20260507025720 | 58 | 290 | 2.6 | 4.3 | 0.00 | 0.23 | 0.23 | 98 | 1005.1 |
| 20260507025217 | 58 | 346 | 1.7 | 1.7 | 0.00 | 0.23 | 0.23 | 98 | 1004.8 |
| 20260507024716 | 58 | 7 | 2.6 | 2.6 | 0.00 | 0.23 | 0.23 | 98 | 1004.9 |
| 20260507024212 | 58 | 127 | 0.9 | 0.9 | 0.00 | 0.23 | 0.23 | 98 | 1005.1 |
| 20260507023708 | 58 | 124 | 2.6 | 2.6 | 0.00 | 0.23 | 0.23 | 98 | 1004.9 |
| 20260507023205 | 58 | 148 | 1.7 | 2.6 | 0.00 | 0.23 | 0.23 | 98 | 1005.0 |
| 20260507022702 | 58 | 271 | 2.6 | 2.6 | 0.00 | 0.23 | 0.23 | 98 | 1005.1 |
| 20260507022158 | 58 | 110 | 0.0 | 0.9 | 0.00 | 0.23 | 0.23 | 98 | 1004.7 |
| 20260507021654 | 58 | 143 | 0.9 | 1.7 | 0.00 | 0.23 | 0.23 | 98 | 1004.5 |
| 20260507021149 | 58 | 113 | 0.9 | 1.7 | 0.00 | 0.23 | 0.23 | 98 | 1004.8 |
| 20260507020649 | 58 | 166 | 1.7 | 1.7 | 0.00 | 0.23 | 0.23 | 98 | 1004.7 |
| 20260507020144 | 58 | 195 | 2.6 | 2.6 | 0.00 | 0.23 | 0.23 | 98 | 1004.7 |
| 20260507015643 | 58 | 204 | 0.9 | 0.9 | 0.00 | 0.23 | 0.23 | 98 | 1004.9 |
| 20260507015140 | 58 | 190 | 2.6 | 2.6 | 0.00 | 0.23 | 0.23 | 98 | 1004.8 |
| 20260507014636 | 58 | 173 | 0.9 | 2.6 | 0.00 | 0.23 | 0.23 | 98 | 1004.8 |
| 20260507014132 | 58 | 159 | 1.7 | 1.7 | 0.00 | 0.23 | 0.23 | 98 | 1004.8 |
| 20260507013629 | 58 | 145 | 1.7 | 1.7 | 0.00 | 0.23 | 0.23 | 98 | 1004.8 |
| 20260507013126 | 58 | 175 | 1.7 | 2.6 | 0.00 | 0.23 | 0.23 | 98 | 1004.7 |
| 20260507012624 | 58 | 192 | 1.7 | 1.7 | 0.00 | 0.23 | 0.23 | 98 | 1004.9 |
| 20260507012119 | 58 | 192 | 0.0 | 0.9 | 0.00 | 0.23 | 0.23 | 98 | 1005.0 |
| 20260507011617 | 58 | 192 | 1.7 | 2.6 | 0.00 | 0.23 | 0.23 | 98 | 1004.8 |
| 20260507011113 | 58 | 175 | 3.5 | 6.1 | 0.00 | 0.23 | 0.23 | 98 | 1005.1 |
| 20260507010608 | 58 | 207 | 2.6 | 4.3 | 0.00 | 0.23 | 0.23 | 98 | 1005.0 |
| 20260507010104 | 58 | 241 | 3.5 | 5.2 | 0.00 | 0.23 | 0.23 | 98 | 1005.0 |
| 20260507005602 | 58 | 153 | 1.7 | 2.6 | 0.00 | 0.23 | 0.23 | 98 | 1004.9 |
| 20260507005058 | 58 | 233 | 2.6 | 6.1 | 0.00 | 0.23 | 0.23 | 98 | 1005.1 |
| 20260507004555 | 58 | 164 | 2.6 | 4.3 | 0.00 | 0.23 | 0.23 | 98 | 1004.7 |
| 20260507004052 | 58 | 154 | 4.3 | 6.1 | 0.00 | 0.23 | 0.23 | 98 | 1004.8 |
| 20260507003548 | 58 | 127 | 1.7 | 2.6 | 0.00 | 0.23 | 0.23 | 98 | 1004.6 |
| 20260507003043 | 58 | 171 | 4.3 | 6.1 | 0.00 | 0.23 | 0.23 | 98 | 1004.7 |
| 20260507002540 | 58 | 202 | 4.3 | 6.1 | 0.00 | 0.23 | 0.23 | 98 | 1005.1 |
| 20260507002036 | 58 | 150 | 2.6 | 2.6 | 0.00 | 0.23 | 0.23 | 98 | 1005.0 |
| 20260507001533 | 58 | 175 | 1.7 | 2.6 | 0.07 | 0.23 | 0.23 | 98 | 1004.8 |
| 20260507001031 | 58 | 144 | 1.7 | 1.7 | 0.07 | 0.23 | 0.23 | 98 | 1004.7 |
| 20260507000526 | 58 | 114 | 2.6 | 4.3 | 0.00 | 0.22 | 0.22 | 98 | 1004.7 |
| 20260507000023 | 58 | 132 | 0.9 | 1.7 | 0.00 | 0.22 | 0.22 | 98 | 1004.6 |
| 20260506235520 | 58 | 132 | 0.9 | 0.9 | 0.00 | 0.22 | 0.22 | 98 | 1004.5 |
| 20260506235015 | 58 | 190 | 4.3 | 6.1 | 0.00 | 0.22 | 0.22 | 98 | 1004.7 |
| 20260506234513 | 58 | 221 | 1.7 | 2.6 | 0.00 | 0.22 | 0.22 | 98 | 1004.6 |
| 20260506234010 | 58 | 110 | 2.6 | 4.3 | 0.00 | 0.22 | 0.22 | 98 | 1004.6 |
| 20260506233506 | 58 | 161 | 3.5 | 4.3 | 0.00 | 0.22 | 0.22 | 98 | 1004.4 |
| 20260506233004 | 58 | 249 | 2.6 | 4.3 | 0.00 | 0.22 | 0.22 | 98 | 1004.8 |
| 20260506232459 | 58 | 150 | 0.9 | 0.9 | 0.12 | 0.22 | 0.22 | 98 | 1004.7 |
| 20260506231955 | 58 | 130 | 2.6 | 4.3 | 0.17 | 0.22 | 0.22 | 98 | 1004.5 |
| 20260506231453 | 58 | 258 | 2.6 | 4.3 | 0.05 | 0.20 | 0.20 | 98 | 1004.7 |
| 20260506230950 | 58 | 236 | 4.3 | 5.2 | 0.07 | 0.19 | 0.19 | 98 | 1004.7 |
| 20260506230446 | 58 | 177 | 1.7 | 1.7 | 0.12 | 0.19 | 0.19 | 98 | 1004.7 |
| 20260506225943 | 58 | 146 | 1.7 | 2.6 | 0.12 | 0.18 | 0.18 | 98 | 1004.9 |
| 20260506225441 | 58 | 285 | 3.5 | 6.1 | 0.12 | 0.17 | 0.17 | 98 | 1004.8 |
| 20260506224937 | 58 | 238 | 1.7 | 4.3 | 0.05 | 0.16 | 0.16 | 98 | 1005.0 |
| 20260506224434 | 58 | 163 | 0.9 | 1.7 | 0.00 | 0.15 | 0.15 | 98 | 1004.8 |
| 20260506223931 | 58 | 153 | 0.9 | 0.9 | 0.00 | 0.15 | 0.15 | 98 | 1004.9 |
| 20260506223426 | 58 | 195 | 4.3 | 5.2 | 0.00 | 0.15 | 0.15 | 98 | 1004.9 |
| 20260506222924 | 58 | 123 | 1.7 | 1.7 | 0.07 | 0.15 | 0.15 | 98 | 1004.8 |
| 20260506222420 | 58 | 132 | 2.6 | 2.6 | 0.07 | 0.15 | 0.15 | 98 | 1005.0 |
| 20260506221917 | 58 | 190 | 4.3 | 6.1 | 0.00 | 0.14 | 0.14 | 98 | 1005.0 |
| 20260506221414 | 58 | 180 | 4.3 | 5.2 | 0.00 | 0.14 | 0.14 | 98 | 1004.9 |
| 20260506220912 | 58 | 221 | 2.6 | 2.6 | 0.05 | 0.14 | 0.14 | 98 | 1005.0 |
| 20260506220407 | 58 | 124 | 0.9 | 1.7 | 0.12 | 0.14 | 0.14 | 98 | 1005.1 |
| 20260506215904 | 58 | 196 | 4.3 | 5.2 | 0.14 | 0.13 | 0.13 | 98 | 1005.3 |
| 20260506215400 | 58 | 155 | 2.6 | 4.3 | 0.07 | 0.12 | 0.12 | 98 | 1005.2 |
| 20260506214856 | 58 | 149 | 1.7 | 1.7 | 0.00 | 0.11 | 0.11 | 98 | 1005.1 |
| 20260506214353 | 58 | 178 | 3.5 | 5.2 | 0.00 | 0.11 | 0.11 | 98 | 1005.2 |
| 20260506213851 | 58 | 146 | 5.2 | 7.0 | 0.00 | 0.11 | 0.11 | 98 | 1005.2 |
| 20260506213348 | 58 | 234 | 5.2 | 7.8 | 0.00 | 0.11 | 0.11 | 98 | 1005.2 |
| 20260506212845 | 59 | 199 | 0.9 | 1.7 | 0.00 | 0.11 | 0.11 | 98 | 1005.2 |
| 20260506212341 | 59 | 173 | 1.7 | 1.7 | 0.05 | 0.11 | 0.11 | 98 | 1005.5 |
| 20260506211836 | 59 | 161 | 1.7 | 2.6 | 0.05 | 0.11 | 0.11 | 98 | 1005.5 |
| 20260506211332 | 59 | 147 | 2.6 | 4.3 | 0.07 | 0.10 | 0.10 | 98 | 1005.7 |
| 20260506210830 | 59 | 161 | 2.6 | 2.6 | 0.07 | 0.10 | 0.10 | 98 | 1005.6 |
| 20260506210327 | 59 | 173 | 2.6 | 5.2 | 0.00 | 0.09 | 0.09 | 98 | 1005.6 |
| 20260506205824 | 59 | 41 | 3.5 | 6.1 | 0.00 | 0.09 | 0.09 | 98 | 1005.7 |
| 20260506205320 | 59 | 167 | 5.2 | 7.8 | 0.05 | 0.09 | 0.09 | 98 | 1005.6 |
| 20260506204817 | 60 | 157 | 0.9 | 0.9 | 0.05 | 0.09 | 0.09 | 98 | 1005.7 |
| 20260506204314 | 60 | 226 | 5.2 | 9.6 | 0.07 | 0.08 | 0.08 | 97 | 1005.8 |
| 20260506203812 | 60 | 228 | 1.7 | 1.7 | 0.07 | 0.08 | 0.08 | 97 | 1005.7 |
| 20260506203309 | 60 | 61 | 2.6 | 2.6 | 0.00 | 0.07 | 0.07 | 97 | 1005.9 |
| 20260506202806 | 60 | 170 | 4.3 | 7.0 | 0.05 | 0.07 | 0.07 | 96 | 1005.6 |
| 20260506202306 | 60 | 250 | 3.5 | 4.3 | 0.12 | 0.07 | 0.07 | 96 | 1005.7 |
| 20260506201759 | 61 | 117 | 0.9 | 1.7 | 0.07 | 0.06 | 0.06 | 95 | 1005.6 |
| 20260506201256 | 61 | 171 | 2.6 | 2.6 | 0.07 | 0.06 | 0.06 | 95 | 1005.7 |
| 20260506200753 | 61 | 153 | 0.9 | 0.9 | 0.00 | 0.05 | 0.05 | 94 | 1005.7 |
| 20260506200249 | 61 | 140 | 3.5 | 5.2 | 0.00 | 0.05 | 0.05 | 93 | 1005.8 |
| 20260506195746 | 61 | 93 | 1.7 | 1.7 | 0.00 | 0.05 | 0.05 | 93 | 1005.8 |
| 20260506195242 | 62 | 129 | 0.9 | 1.7 | 0.00 | 0.05 | 0.05 | 93 | 1005.7 |
| 20260506194740 | 62 | 210 | 1.7 | 4.3 | 0.00 | 0.05 | 0.05 | 93 | 1005.9 |
| 20260506194236 | 62 | 142 | 0.9 | 0.9 | 0.00 | 0.05 | 0.05 | 93 | 1005.9 |
| 20260506193734 | 62 | 197 | 2.6 | 2.6 | 0.00 | 0.05 | 0.05 | 92 | 1005.8 |
| 20260506193230 | 62 | 151 | 3.5 | 5.2 | 0.05 | 0.05 | 0.05 | 93 | 1005.9 |
| 20260506192727 | 62 | 184 | 2.6 | 2.6 | 0.05 | 0.05 | 0.05 | 92 | 1005.6 |
| 20260506192224 | 62 | 152 | 0.9 | 1.7 | 0.07 | 0.04 | 0.04 | 91 | 1005.6 |
| 20260506191720 | 63 | 121 | 1.7 | 2.6 | 0.07 | 0.04 | 0.04 | 90 | 1005.7 |
| 20260506191216 | 63 | 167 | 2.6 | 5.2 | 0.05 | 0.03 | 0.03 | 91 | 1005.8 |
| 20260506190714 | 63 | 118 | 0.9 | 0.9 | 0.05 | 0.03 | 0.03 | 91 | 1005.8 |
| 20260506190210 | 63 | 135 | 0.9 | 0.9 | 0.07 | 0.02 | 0.02 | 90 | 1006.4 |
| 20260506185708 | 64 | 114 | 0.0 | 0.9 | 0.07 | 0.02 | 0.02 | 88 | 1006.1 |
| 20260506185204 | 64 | 120 | 0.9 | 0.9 | 0.00 | 0.01 | 0.01 | 86 | 1006.0 |
| 20260506184702 | 65 | 128 | 0.9 | 0.9 | 0.07 | 0.01 | 0.01 | 83 | 1006.1 |
| 20260506184159 | 65 | 116 | 1.7 | 1.7 | 0.07 | 0.01 | 0.01 | 79 | 1006.1 |
| 20260506183655 | 66 | 131 | 0.9 | 1.7 | 0.00 | 0.00 | 0.00 | 79 | 1006.0 |
| 20260506183151 | 66 | 129 | 0.9 | 1.7 | 0.00 | 0.00 | 0.00 | 76 | 1006.2 |
| 20260506182649 | 67 | 133 | 0.0 | 0.9 | 0.00 | 0.00 | 0.00 | 74 | 1006.2 |
| 20260506182146 | 68 | 196 | 0.9 | 1.7 | 0.00 | 0.00 | 0.00 | 72 | 1006.3 |
| 20260506181644 | 68 | 136 | 0.9 | 0.9 | 0.00 | 0.00 | 0.00 | 70 | 1006.0 |
| 20260506181141 | 68 | 135 | 2.6 | 4.3 | 0.00 | 0.00 | 0.00 | 69 | 1006.1 |
| 20260506180637 | 69 | 176 | 6.1 | 11.3 | 0.00 | 0.00 | 0.00 | 66 | 1006.1 |
| 20260506180134 | 69 | 234 | 3.5 | 4.3 | 0.00 | 0.00 | 0.00 | 65 | 1005.9 |
| 20260506175630 | 70 | 328 | 4.3 | 6.1 | 0.00 | 0.00 | 0.00 | 64 | 1006.2 |
| 20260506175126 | 71 | 239 | 2.6 | 2.6 | 0.00 | 0.00 | 0.00 | 62 | 1005.9 |
| 20260506174626 | 71 | 184 | 4.3 | 5.2 | 0.00 | 0.00 | 0.00 | 60 | 1006.1 |
| 20260506174122 | 71 | 131 | 1.7 | 1.7 | 0.00 | 0.00 | 0.00 | 61 | 1006.0 |
| 20260506173619 | 71 | 111 | 5.2 | 7.0 | 0.00 | 0.00 | 0.00 | 60 | 1006.1 |
| 20260506173116 | 71 | 315 | 3.5 | 5.2 | 0.00 | 0.00 | 0.00 | 61 | 1006.1 |
| 20260506172613 | 72 | 281 | 4.3 | 7.0 | 0.00 | 0.00 | 0.00 | 61 | 1006.0 |
| 20260506172109 | 72 | 21 | 3.5 | 5.2 | 0.00 | 0.00 | 0.00 | 60 | 1006.3 |
| 20260506171607 | 71 | 125 | 1.7 | 1.7 | 0.00 | 0.00 | 0.00 | 61 | 1006.3 |
| 20260506171105 | 71 | 213 | 6.1 | 9.6 | 0.00 | 0.00 | 0.00 | 61 | 1006.2 |
| 20260506170602 | 71 | 115 | 1.7 | 4.3 | 0.00 | 0.00 | 0.00 | 61 | 1006.2 |
| 20260506170059 | 71 | 191 | 5.2 | 7.0 | 0.00 | 0.00 | 0.00 | 61 | 1006.5 |
| 20260506165558 | 71 | 73 | 4.3 | 6.1 | 0.00 | 0.00 | 0.00 | 62 | 1006.5 |
| 20260506165053 | 71 | 189 | 3.5 | 4.3 | 0.00 | 0.00 | 0.00 | 62 | 1006.5 |
| 20260506164551 | 71 | 230 | 7.0 | 9.6 | 0.00 | 0.00 | 0.00 | 61 | 1006.9 |
| 20260506164048 | 71 | 135 | 1.7 | 2.6 | 0.00 | 0.00 | 0.00 | 62 | 1006.6 |
| 20260506163543 | 70 | 157 | 1.7 | 1.7 | 0.00 | 0.00 | 0.00 | 63 | 1006.8 |
| 20260506163039 | 70 | 183 | 1.7 | 1.7 | 0.00 | 0.00 | 0.00 | 63 | 1006.7 |
| 20260506162536 | 70 | 240 | 3.5 | 6.1 | 0.00 | 0.00 | 0.00 | 64 | 1006.7 |
| 20260506162033 | 70 | 235 | 7.0 | 11.3 | 0.00 | 0.00 | 0.00 | 63 | 1006.9 |
| 20260506161531 | 70 | 122 | 1.7 | 2.6 | 0.00 | 0.00 | 0.00 | 64 | 1007.1 |
| 20260506161027 | 70 | 131 | 0.9 | 1.7 | 0.00 | 0.00 | 0.00 | 65 | 1007.1 |
| 20260506160525 | 70 | 100 | 0.9 | 0.9 | 0.00 | 0.00 | 0.00 | 65 | 1007.2 |
| 20260506160022 | 69 | 152 | 0.9 | 1.7 | 0.00 | 0.00 | 0.00 | 66 | 1007.5 |
| 20260506155520 | 69 | 154 | 3.5 | 6.1 | 0.00 | 0.00 | 0.00 | 65 | 1007.5 |
| 20260506153652 | 69 | 253 | 2.6 | 4.3 | 0.00 | 0.00 | 0.00 | 66 | 1008.1 |
| 20260506153149 | 69 | 186 | 1.7 | 1.7 | 0.00 | 0.00 | 0.00 | 66 | 1008.0 |
| 20260506152646 | 70 | 175 | 2.6 | 4.3 | 0.00 | 0.00 | 0.00 | 65 | 1008.1 |
| 20260506152143 | 70 | 168 | 0.9 | 1.7 | 0.00 | 0.00 | 0.00 | 65 | 1008.0 |
| 20260506151642 | 70 | 218 | 4.3 | 6.1 | 0.00 | 0.00 | 0.00 | 65 | 1008.2 |
| 20260506151138 | 69 | 103 | 2.6 | 4.3 | 0.00 | 0.00 | 0.00 | 65 | 1008.0 |
| 20260506150635 | 69 | 171 | 4.3 | 9.6 | 0.00 | 0.00 | 0.00 | 66 | 1008.1 |
| 20260506150132 | 69 | 208 | 2.6 | 5.2 | 0.00 | 0.00 | 0.00 | 67 | 1008.2 |
| 20260506145629 | 69 | 143 | 4.3 | 5.2 | 0.00 | 0.00 | 0.00 | 67 | 1008.1 |
| 20260506145126 | 69 | 182 | 8.7 | 12.2 | 0.00 | 0.00 | 0.00 | 67 | 1008.4 |
| 20260506144624 | 69 | 222 | 2.6 | 6.1 | 0.00 | 0.00 | 0.00 | 68 | 1008.0 |
| 20260506144120 | 69 | 108 | 1.7 | 1.7 | 0.00 | 0.00 | 0.00 | 68 | 1007.9 |
| 20260506143618 | 68 | 200 | 5.2 | 7.8 | 0.00 | 0.00 | 0.00 | 69 | 1008.2 |
| 20260506143115 | 68 | 139 | 1.7 | 1.7 | 0.00 | 0.00 | 0.00 | 70 | 1008.3 |
| 20260506142614 | 68 | 225 | 2.6 | 2.6 | 0.00 | 0.00 | 0.00 | 69 | 1008.2 |
| 20260506142112 | 69 | 229 | 1.7 | 1.7 | 0.00 | 0.00 | 0.00 | 69 | 1007.9 |
| 20260506141609 | 68 | 143 | 2.6 | 2.6 | 0.00 | 0.00 | 0.00 | 70 | 1007.9 |
| 20260506141107 | 68 | 154 | 7.0 | 8.7 | 0.00 | 0.00 | 0.00 | 70 | 1007.7 |
| 20260506140604 | 67 | 163 | 2.6 | 2.6 | 0.00 | 0.00 | 0.00 | 73 | 1007.8 |
| 20260506135558 | 66 | 159 | 4.3 | 7.8 | 0.00 | 0.00 | 0.00 | 74 | 1008.1 |
| 20260506135054 | 66 | 166 | 7.8 | 13.0 | 0.00 | 0.00 | 0.00 | 74 | 1007.9 |
| 20260506134551 | 65 | 174 | 2.6 | 4.3 | 0.00 | 0.00 | 0.00 | 75 | 1008.4 |
| 20260506134047 | 65 | 166 | 0.9 | 1.7 | 0.00 | 0.00 | 0.00 | 76 | 1008.2 |
| 20260506133544 | 65 | 159 | 2.6 | 2.6 | 0.00 | 0.00 | 0.00 | 76 | 1008.3 |
| 20260506133041 | 65 | 232 | 3.5 | 4.3 | 0.00 | 0.00 | 0.00 | 76 | 1008.4 |
| 20260506132538 | 64 | 222 | 1.7 | 1.7 | 0.00 | 0.00 | 0.00 | 76 | 1008.4 |
| 20260506132036 | 64 | 159 | 4.3 | 6.1 | 0.00 | 0.00 | 0.00 | 77 | 1008.6 |
| 20260506131532 | 64 | 226 | 0.9 | 1.7 | 0.00 | 0.00 | 0.00 | 77 | 1008.7 |
| 20260506131029 | 64 | 223 | 5.2 | 8.7 | 0.00 | 0.00 | 0.00 | 77 | 1008.4 |
| 20260506130526 | 64 | 87 | 1.7 | 2.6 | 0.00 | 0.00 | 0.00 | 77 | 1008.4 |
| 20260506130023 | 64 | 184 | 3.5 | 4.3 | 0.00 | 0.00 | 0.00 | 77 | 1008.6 |
| 20260506125521 | 64 | 157 | 1.7 | 1.7 | 0.00 | 0.00 | 0.00 | 77 | 1009.0 |
| 20260506125019 | 64 | 240 | 2.6 | 5.2 | 0.00 | 0.00 | 0.00 | 77 | 1008.7 |
| 20260506124517 | 64 | 206 | 2.6 | 4.3 | 0.00 | 0.00 | 0.00 | 77 | 1008.6 |
| 20260506124014 | 63 | 190 | 1.7 | 1.7 | 0.00 | 0.00 | 0.00 | 78 | 1008.1 |
| 20260506123512 | 63 | 151 | 5.2 | 6.1 | 0.00 | 0.00 | 0.00 | 78 | 1008.6 |
| 20260506123010 | 63 | 225 | 6.1 | 7.8 | 0.00 | 0.00 | 0.00 | 78 | 1008.7 |
| 20260506122506 | 63 | 114 | 2.6 | 2.6 | 0.00 | 0.00 | 0.00 | 78 | 1008.3 |
| 20260506122005 | 63 | 116 | 1.7 | 1.7 | 0.00 | 0.00 | 0.00 | 79 | 1008.8 |
| 20260506121501 | 64 | 175 | 6.1 | 7.8 | 0.00 | 0.00 | 0.00 | 77 | 1008.8 |
| 20260506120958 | 64 | 182 | 2.6 | 4.3 | 0.00 | 0.00 | 0.00 | 77 | 1008.7 |
| 20260506120456 | 63 | 147 | 1.7 | 2.6 | 0.00 | 0.00 | 0.00 | 78 | 1008.8 |
| 20260506115953 | 62 | 147 | 2.6 | 2.6 | 0.00 | 0.00 | 0.00 | 80 | 1008.8 |
| 20260506115451 | 62 | 129 | 0.9 | 0.9 | 0.00 | 0.00 | 0.00 | 80 | 1008.7 |
| 20260506114949 | 62 | 136 | 4.3 | 5.2 | 0.00 | 0.00 | 0.00 | 80 | 1009.1 |
| 20260506114446 | 62 | 121 | 2.6 | 4.3 | 0.00 | 0.00 | 0.00 | 80 | 1009.0 |
| 20260506113944 | 61 | 229 | 1.7 | 4.3 | 0.00 | 0.00 | 0.00 | 80 | 1009.1 |
| 20260506113442 | 61 | 183 | 2.6 | 2.6 | 0.00 | 0.00 | 0.00 | 81 | 1009.0 |
| 20260506112938 | 61 | 146 | 1.7 | 1.7 | 0.00 | 0.00 | 0.00 | 81 | 1009.1 |
| 20260506112436 | 61 | 154 | 0.9 | 0.9 | 0.00 | 0.00 | 0.00 | 81 | 1009.2 |
| 20260506111933 | 61 | 178 | 2.6 | 2.6 | 0.00 | 0.00 | 0.00 | 81 | 1009.2 |
| 20260506111431 | 61 | 194 | 2.6 | 4.3 | 0.00 | 0.00 | 0.00 | 81 | 1009.0 |
| 20260506110928 | 61 | 124 | 1.7 | 1.7 | 0.00 | 0.00 | 0.00 | 81 | 1009.1 |
| 20260506110426 | 60 | 123 | 0.9 | 0.9 | 0.00 | 0.00 | 0.00 | 82 | 1009.1 |
| 20260506105922 | 60 | 156 | 1.7 | 1.7 | 0.00 | 0.00 | 0.00 | 82 | 1008.8 |
| 20260506105418 | 60 | 140 | 1.7 | 1.7 | 0.00 | 0.00 | 0.00 | 83 | 1009.2 |
| 20260506104916 | 59 | 149 | 1.7 | 2.6 | 0.00 | 0.00 | 0.00 | 83 | 1009.3 |
| 20260506104414 | 59 | 191 | 2.6 | 2.6 | 0.00 | 0.00 | 0.00 | 83 | 1009.3 |
| 20260506103912 | 59 | 200 | 2.6 | 4.3 | 0.00 | 0.00 | 0.00 | 83 | 1009.0 |
| 20260506103409 | 60 | 160 | 2.6 | 2.6 | 0.00 | 0.00 | 0.00 | 83 | 1009.0 |
| 20260506102905 | 59 | 205 | 3.5 | 4.3 | 0.00 | 0.00 | 0.00 | 83 | 1008.9 |
| 20260506102404 | 59 | 113 | 1.7 | 4.3 | 0.00 | 0.00 | 0.00 | 83 | 1009.0 |
| 20260506101901 | 59 | 133 | 3.5 | 5.2 | 0.00 | 0.00 | 0.00 | 83 | 1008.9 |
| 20260506101356 | 59 | 201 | 3.5 | 5.2 | 0.00 | 0.00 | 0.00 | 83 | 1009.1 |
| 20260506100854 | 59 | 229 | 1.7 | 4.3 | 0.00 | 0.00 | 0.00 | 83 | 1009.1 |
| 20260506100353 | 59 | 138 | 3.5 | 5.2 | 0.00 | 0.00 | 0.00 | 83 | 1009.3 |
| 20260506095850 | 59 | 203 | 1.7 | 2.6 | 0.00 | 0.00 | 0.00 | 83 | 1009.0 |
| 20260506095348 | 59 | 173 | 1.7 | 1.7 | 0.00 | 0.00 | 0.00 | 83 | 1009.2 |
| 20260506094844 | 59 | 155 | 0.0 | 0.0 | 0.00 | 0.00 | 0.00 | 83 | 1008.9 |
| 20260506094343 | 59 | 175 | 2.6 | 4.3 | 0.00 | 0.00 | 0.00 | 83 | 1008.8 |
| 20260506093841 | 59 | 119 | 1.7 | 2.6 | 0.00 | 0.00 | 0.00 | 83 | 1008.8 |
| 20260506093338 | 59 | 181 | 3.5 | 5.2 | 0.00 | 0.00 | 0.00 | 82 | 1009.0 |
| 20260506092835 | 59 | 136 | 0.9 | 0.9 | 0.00 | 0.00 | 0.00 | 82 | 1008.9 |
| 20260506092333 | 59 | 112 | 0.9 | 0.9 | 0.00 | 0.00 | 0.00 | 82 | 1009.3 |
| 20260506091830 | 60 | 259 | 2.6 | 5.2 | 0.00 | 0.00 | 0.00 | 81 | 1009.1 |
| 20260506091328 | 60 | 135 | 1.7 | 1.7 | 0.00 | 0.00 | 0.00 | 81 | 1008.8 |
| 20260506090825 | 60 | 165 | 1.7 | 2.6 | 0.00 | 0.00 | 0.00 | 81 | 1008.9 |
| 20260506090322 | 60 | 151 | 2.6 | 2.6 | 0.00 | 0.00 | 0.00 | 80 | 1009.1 |